Flag for Germany Weather past 2 weeks in Wismar, Mecklenburg-Western Pomerania, Germany

Now
51 °F

Passing clouds.


Feels Like: 51 °F
Forecast: 57 / 67 °F
Wind: 2 mph from West

Location: Schwerin

Current Time: Aug 28, 2014 at 5:39:26 AM

Latest Report: Aug 28, 2014 at 4:00 AM


Visibility: 18 mi

Pressure: 30.04 "Hg

Humidity: 93%

Dew point: 49 °F

Location of WismarLocation

Historic Weather in Wismar — Graph

°F

Wismar temperature yesterday

Maximum temperature yesterday: 69 °F (at 4:00 PM)
Minimum temperature yesterday: 49 °F (at 6:00 AM)
Average temperature yesterday: 58 °F

Past Weeks' High & Low Weather Summary

 TemperatureHumidityPressure
High73 °F (Aug 13, 4:00 PM)100% (Aug 26, 6:00 AM)30.04 "Hg (Aug 26, 6:00 AM)
Low44 °F (Aug 26, 7:00 AM)41% (Aug 27, 6:00 PM)29.50 "Hg (Aug 18, 12:00 PM)
Average57 °F77%29.82 "Hg
* Reported Aug 13 4:00 AM — Aug 28 4:00 AM, Wismar, Weather by CustomWeather, © 2014

Note: Actual official high and low records may vary slightly from our data, if they occured in-between our weather recording intervals... More about our weather records

Advertising

Wismar weather history for previous 24 hours

 ConditionsComfort  
Time TempWeatherWind HumidityBarometerVisibility
4:00 AM
Aug 28
51 °FPassing clouds.2 mph93%30.04 "Hg18 mi
3:00 AM51 °FPassing clouds.3 mph92%30.04 "Hg14 mi
2:00 AM52 °FFog.2 mph95%30.04 "Hg3 mi
1:00 AM54 °FPassing clouds.1 mph81%30.04 "Hg31 mi
12:00 AM56 °FPassing clouds.2 mph78%30.04 "Hg28 mi
11:00 PM
Aug 27
56 °FPassing clouds.3 mph77%30.03 "Hg25 mi
10:00 PM57 °FPassing clouds.2 mph78%30.03 "Hg28 mi
9:00 PM59 °FOvercast.1 mph78%30.01 "Hg19 mi
8:00 PM65 °FScattered clouds.2 mph47%30.00 "Hg31 mi
7:00 PM68 °FPartly sunny.3 mph42%29.99 "Hg28 mi
6:00 PM69 °FScattered clouds.5 mph41%29.98 "Hg25 mi
4:00 PM69 °FScattered clouds.5 mph42%29.98 "Hg22 mi
3:00 PM69 °FPartly sunny.5 mph42%29.98 "Hg14 mi
2:00 PM67 °FPartly sunny.5 mph44%29.98 "Hg31 mi
1:00 PM65 °FPartly sunny.5 mph46%29.98 "Hg22 mi
9:00 AM57 °FScattered clouds.3 mph88%29.94 "Hg9 mi
8:00 AM54 °FFog.3 mph95%29.92 "Hg4 mi
7:00 AM49 °FFog.2 mph97%29.91 "Hg4 mi
6:00 AM49 °FFog.3 mph98%29.90 "Hg3 mi
Weather by CustomWeather, © 2014

See weather overviewHow to use our weather pages